Location: Azul
(36.7830°S, 59.8500°W)
Time: 12:32:12
(UTC-03:00)

ISS - Pass Details

Date: 14 February 2018
Orbit: 403 x 406 km, 51.6° (Epoch: 26 February)

Event Time Altitude Azimuth Distance (km) Brightness Sun altitude
Rises 05:53:13 0° 220° (SW) 2,365 -0.1 -7.7°
Reaches altitude 10° 05:55:36 10° 205° (SSW) 1,498 -1.0 -7.2°
Maximum altitude 05:58:23 23° 149° (SSE) 925 -1.3 -6.7°
Drops below altitude 10° 06:01:08 10° 94° (E) 1,485 0.5 -6.2°
Sets 06:03:29 0° 79° (ENE) 2,341 1.1 -5.8°
